Regional Weather Roundup
Issued by NWS

Home | Current Version | Previous Version | Text Only | Print | Product List | Glossary Off
Versions: 1 2 3 4 5 6 7 8 9 10 11 12 13 14 15 16 17 18 19 20 21 22 23 24 25 26 27 28 29 30 31 32 33 34 35 36 37 38 39 40 41 42 43 44 45 46 47 48 49 50

034
ASUS45 KTFX 211710
RWRMT
MONTANA REGIONAL WEATHER ROUNDUP
NATIONAL WEATHER SERVICE GREAT FALLS MT
1100 AM MDT MON AUG 21 2017

NOTE: "FAIR" INDICATES FEW OR NO CLOUDS BELOW 12000 FEET WITH NO
SIGNIFICANT WEATHER AND/OR OBSTRUCTIONS TO VISIBILITY.

MTZ001>007-043-211800-
WEST OF THE DIVIDE

CITY           SKY/WX    TMP DP  RH WIND       PRES   REMARKS
KALISPELL      SUNNY     66  42  41 CALM      30.20S
MISSOULA       SUNNY     64  39  39 CALM      30.22S HAZE
BUTTE          SUNNY     64  34  32 CALM      30.28F
MULLAN PASS    SUNNY     62  36  37 CALM      30.31S
ANACONDA         N/A     64  36  34 N5        30.26R
DEER LODGE       N/A     63  36  36 CALM      30.28S
EUREKA           N/A     64  39  39 MISG      30.21F
HAMILTON         N/A     64  41  42 CALM      30.23S
LIBBY            N/A     64  41  42 CALM      30.18F
RONAN            N/A     70  48  45 CALM      30.24R
$$

MTZ008-052>055-211800-
SOUTHWEST MONTANA

CITY           SKY/WX    TMP DP  RH WIND       PRES   REMARKS
BOZEMAN        SUNNY     67  34  29 VRB3      30.22S
DILLON         SUNNY     65  38  36 CALM      30.24F HAZE
W YELLOWSTONE  SUNNY     63  30  29 CALM      30.31F
ENNIS          SUNNY     66  30  26 CALM      30.30S
THREE FORKS      N/A     66  35  31 CALM      30.19S
TWIN BRIDGES     N/A     63  35  35 CALM      30.20S
$$

MTZ009-010-012-014-046-048-049-054-211800-
EAST SLOPES AND CENTRAL MONTANA

CITY           SKY/WX    TMP DP  RH WIND       PRES   REMARKS
CUT BANK       SUNNY     65  36  34 E3        30.22S
GREAT FALLS    SUNNY     67  34  29 CALM      30.21S
MALMSTROM AFB  SUNNY     66  35  31 CALM      30.20F
HELENA         SUNNY     70  38  31 CALM      30.21R
AUGUSTA          N/A     67  32  27 NE8       30.23R
BOWMANS CRNR     N/A     67  34  29 N5        30.21S
CHOTEAU          N/A     66  36  32 N8G14     30.24R
FAIRFIELD        N/A     66  33  28 N3        30.21S
POWER            N/A     65  33  30 N9        30.21R
RAYNESFORD       N/A     66  34  30 NW6       30.22S
ULM              N/A     67  35  30 N5        30.21S
$$

MTZ011-013-016-021-045-047-050-051-211800-
NORTH CENTRAL MONTANA

CITY           SKY/WX    TMP DP  RH WIND       PRES   REMARKS
HAVRE          SUNNY     69  37  30 E16       30.18S
LEWISTOWN      SUNNY     70  33  25 CALM      30.21S
N BAR RANCH      N/A     68  28  22 E12G17    30.25R
CHINOOK          N/A     66  39  37 E6        30.18F
DENTON           N/A     69  33  27 N6        30.16S
GEYSER           N/A     71  35  26 W10       30.19S
GRASS RANGE      N/A     70  30  22 NE8       30.17S
JUDITH GAP       N/A     70  34  26 N9        30.21S
WINIFRED         N/A     68  31  25 NE13      30.19S
$$

MTZ017>020-022>027-061-062-211800-
NORTHEAST MONTANA

CITY           SKY/WX    TMP DP  RH WIND       PRES   REMARKS
GLASGOW        SUNNY     71  38  29 NW8       30.15R
JORDAN           N/A     72  33  24 E9G17     30.16R
SIDNEY         SUNNY     72  40  31 N17       30.10R
WOLF POINT     MOSUNNY   71  38  29 CALM      30.13R
MALTA          CLOUDY    70  37  30 E6G12     30.17S
PLENTYWOOD       N/A     66  39  37 NW18G25   30.10R
POPLAR           N/A     68  39  34 NW6       30.13R
$$

MTZ028>42-056>058-211800-
SOUTHCENTRAL AND SOUTHEAST MONTANA

CITY           SKY/WX    TMP DP  RH WIND       PRES   REMARKS
BAKER          SUNNY     74  35  24 N12       30.13R
BILLINGS       MOSUNNY   72  33  24 VRB5      30.18S
LIVINGSTON     SUNNY     69  31  24 N5        30.22S
MILES CITY     SUNNY     76  32  20 NE8       30.13R
BIG TIMBER     SUNNY     66  32  28 CALM      30.25R
EKALAKA          N/A     72  33  23 N10       30.11R
HARLOWTON        N/A     70  32  24 MISG      30.21S
LAUREL           N/A     71  34  25 CALM      30.16F
$$

REGIONAL REPORTS...DAKOTAS

CITY           SKY/WX    TMP DP  RH WIND       PRES   REMARKS
WILLISTON      PTSUNNY   71  41  33 N21G26    30.09R
MINOT          SUNNY     73  47  39 NW26G33   29.95S
DICKINSON      SUNNY     73  42  32 N20G30    30.04R
BEACH            N/A     70  37  30 N20G26    30.13S
CROSBY           N/A     68  37  32 NW17G24   30.08R
TIOGA            N/A     68  41  37 N21G29    30.08R
WATFORD CITY     N/A     73  41  31 N20       30.06S
BISMARCK       SUNNY     73  56  54 W14G22    29.98F
GRAND FORKS    CLOUDY    71  54  54 S7        29.92F
FARGO          CLOUDY    70  57  63 SE14G20   29.92F
BUFFALO SD       N/A     76  40  27 N21       30.02R
RAPID CITY     SUNNY     74  51  44 N21G30    30.09R
$$

REGIONAL REPORTS...WYOMING/IDAHO/WASHINGTON

CITY           SKY/WX    TMP DP  RH WIND       PRES   REMARKS
GILLETTE       MOSUNNY   70  35  27 N16       30.19R
SHERIDAN       SUNNY     73  35  25 E3        30.19F
BUFFALO WY     SUNNY     72  33  24 N9        30.24F
CODY           SUNNY     69  38  32 NE9       30.23F
YELLOWSTONE LA   N/A     56  45  66 VRB5      30.39S
IDAHO FALLS    SUNNY     69  35  28 SW9       30.22R
SALMON         SUNNY     64  39  39 CALM      30.21F
BOISE          SUNNY     71  41  33 VRB3      30.11F
SPOKANE        MOSUNNY   68  45  43 NE6       30.17S
$$

REGIONAL REPORTS...ALBERTA

CITY           SKY/WX    TMP DP  RH WIND       PRES   REMARKS
EDMONTON       MOSUNNY   63  46  55 W6        30.11S
LETHBRIDGE     MOSUNNY   63  41  45 SE7       30.20F
MEDICINE HAT   MOSUNNY   66  39  37 N6        30.18F
$$

REGIONAL REPORTS...SASKATCHEWAN

CITY           SKY/WX    TMP DP  RH WIND       PRES   REMARKS
SWIFT CURRENT  SUNNY     64  37  36 NW12G18   30.16S
REGINA         MOSUNNY   68  41  37 NW15G23   30.08F
SASKATOON      SUNNY     66  43  42 NW10G17   30.11R
$$




USA.gov is the U.S. government's official web portal to all federal, state and local government web resources and services.